Time,TemperatureF,DewpointF,PressureIn,WindDirection,WindDirectionDegrees,WindSpeedMPH,WindSpeedGustMPH,Humidity,HourlyPrecipIn,Conditions,Clouds,dailyrainin,SoftwareType,DateUTC
2013-06-09 00:03:00,73.0,72.0,30.10,ESE,102,0.0,3.0,97,0.00,,,0.07,,2013-06-09 04:03:00,
2013-06-09 00:12:00,73.0,72.0,30.10,ESE,102,0.0,3.0,97,0.00,,,0.07,,2013-06-09 04:12:00,
2013-06-09 00:23:00,73.0,72.0,30.10,East,87,0.0,3.0,97,0.00,,,0.07,,2013-06-09 04:23:00,
2013-06-09 00:33:00,73.0,72.0,30.11,East,82,2.0,3.0,97,0.00,,,0.07,,2013-06-09 04:33:00,
2013-06-09 00:43:00,73.0,72.0,30.11,East,82,2.0,3.0,97,0.00,,,0.07,,2013-06-09 04:43:00,
2013-06-09 00:53:00,73.0,72.0,30.11,ESE,118,0.0,4.0,97,0.00,,,0.07,,2013-06-09 04:53:00,
2013-06-09 01:02:00,74.0,73.0,30.10,ESE,102,2.0,5.0,97,0.00,,,0.07,,2013-06-09 05:02:00,
2013-06-09 01:12:00,74.0,73.0,30.10,ESE,102,2.0,5.0,97,0.00,,,0.07,,2013-06-09 05:12:00,
2013-06-09 01:22:00,74.0,73.0,30.10,ENE,77,1.0,6.0,97,0.00,,,0.07,,2013-06-09 05:22:00,
2013-06-09 01:32:00,74.0,73.0,30.10,East,87,2.0,6.0,97,0.00,,,0.07,,2013-06-09 05:32:00,
2013-06-09 01:42:00,74.0,73.0,30.10,East,87,2.0,6.0,97,0.00,,,0.07,,2013-06-09 05:42:00,
2013-06-09 01:52:00,74.0,73.0,30.09,ESE,103,2.0,6.0,97,0.00,,,0.07,,2013-06-09 05:52:00,
2013-06-09 02:02:00,74.0,73.0,30.09,ESE,113,3.0,7.0,96,0.00,,,0.07,,2013-06-09 06:02:00,
2013-06-09 02:12:00,74.0,73.0,30.09,ESE,113,3.0,7.0,96,0.00,,,0.07,,2013-06-09 06:12:00,
2013-06-09 02:22:00,75.0,73.0,30.08,SE,129,3.0,11.0,95,0.00,,,0.07,,2013-06-09 06:22:00,
2013-06-09 07:22:00,75.0,74.0,30.07,ESE,110,0.0,1.0,96,0.00,,,0.07,,2013-06-09 11:22:00,
2013-06-09 07:32:00,76.0,74.0,30.08,ESE,112,0.0,1.0,95,0.00,,,0.07,,2013-06-09 11:32:00,
2013-06-09 07:42:00,76.0,74.0,30.08,ESE,112,0.0,1.0,95,0.00,,,0.07,,2013-06-09 11:42:00,
2013-06-09 07:52:00,77.0,75.0,30.08,East,99,0.0,2.0,94,0.00,,,0.07,,2013-06-09 11:52:00,
2013-06-09 08:03:00,78.0,76.0,30.08,ESE,105,2.0,4.0,93,0.00,,,0.07,,2013-06-09 12:03:00,
2013-06-09 08:12:00,78.0,76.0,30.08,ESE,105,2.0,4.0,93,0.00,,,0.07,,2013-06-09 12:12:00,
2013-06-09 08:22:00,79.0,76.0,30.08,East,96,2.0,5.0,91,0.00,,,0.07,,2013-06-09 12:22:00,
2013-06-09 08:32:00,80.0,76.0,30.09,ESE,123,1.0,4.0,88,0.00,,,0.07,,2013-06-09 12:32:00,
2013-06-09 08:42:00,80.0,76.0,30.09,ESE,123,1.0,4.0,88,0.00,,,0.07,,2013-06-09 12:42:00,
2013-06-09 08:52:00,80.0,76.0,30.09,East,91,4.0,7.0,87,0.00,,,0.07,,2013-06-09 12:52:00,
2013-06-09 09:02:00,81.0,76.0,30.09,ESE,117,3.0,8.0,86,0.00,,,0.07,,2013-06-09 13:02:00,
2013-06-09 09:12:00,81.0,76.0,30.09,ESE,117,3.0,8.0,86,0.00,,,0.07,,2013-06-09 13:12:00,
2013-06-09 09:22:00,82.0,77.0,30.10,ESE,107,3.0,6.0,84,0.00,,,0.07,,2013-06-09 13:22:00,
2013-06-09 09:32:00,82.0,76.0,30.11,East,92,2.0,9.0,82,0.00,,,0.07,,2013-06-09 13:32:00,
2013-06-09 09:42:00,82.0,76.0,30.11,East,92,2.0,9.0,82,0.00,,,0.07,,2013-06-09 13:42:00,
2013-06-09 09:52:00,82.0,76.0,30.11,ESE,116,4.0,9.0,82,0.00,,,0.07,,2013-06-09 13:52:00,
2013-06-09 10:02:00,82.0,76.0,30.10,ESE,108,4.0,9.0,82,0.00,,,0.07,,2013-06-09 14:02:00,
2013-06-09 10:12:00,82.0,76.0,30.10,ESE,108,4.0,9.0,82,0.00,,,0.07,,2013-06-09 14:12:00,
2013-06-09 10:22:00,83.0,76.0,30.11,East,93,5.0,12.0,80,0.00,,,0.07,,2013-06-09 14:22:00,
2013-06-09 10:32:00,83.0,76.0,30.10,ENE,73,2.0,8.0,80,0.00,,,0.07,,2013-06-09 14:32:00,
2013-06-09 10:43:00,83.0,76.0,30.10,ENE,73,2.0,8.0,80,0.00,,,0.07,,2013-06-09 14:43:00,
2013-06-09 10:52:00,84.0,76.0,30.10,East,87,5.0,10.0,78,0.00,,,0.07,,2013-06-09 14:52:00,
2013-06-09 11:02:00,84.0,77.0,30.10,SE,127,6.0,11.0,79,0.00,,,0.07,,2013-06-09 15:02:00,
2013-06-09 11:12:00,84.0,77.0,30.10,SE,127,6.0,11.0,79,0.00,,,0.07,,2013-06-09 15:12:00,
2013-06-09 11:22:00,84.0,77.0,30.10,ESE,119,5.0,10.0,79,0.00,,,0.07,,2013-06-09 15:22:00,
2013-06-09 11:33:00,83.0,75.0,30.11,East,95,5.0,10.0,78,0.00,,,0.07,,2013-06-09 15:33:00,
2013-06-09 11:43:00,83.0,75.0,30.11,East,95,5.0,10.0,78,0.00,,,0.07,,2013-06-09 15:43:00,
2013-06-09 11:53:00,83.0,75.0,30.11,ESE,113,8.0,14.0,78,0.00,,,0.07,,2013-06-09 15:53:00,
2013-06-09 12:03:00,84.0,77.0,30.11,ESE,114,3.0,11.0,79,0.00,,,0.07,,2013-06-09 16:03:00,
2013-06-09 12:13:00,84.0,77.0,30.11,ESE,114,3.0,11.0,79,0.00,,,0.07,,2013-06-09 16:13:00,
2013-06-09 12:23:00,84.0,77.0,30.11,ESE,123,7.0,10.0,80,0.00,,,0.07,,2013-06-09 16:23:00,
2013-06-09 12:33:00,84.0,77.0,30.11,SE,131,8.0,14.0,79,0.00,,,0.07,,2013-06-09 16:33:00,
2013-06-09 12:42:00,84.0,77.0,30.11,SE,131,8.0,14.0,79,0.00,,,0.07,,2013-06-09 16:42:00,
2013-06-09 12:53:00,84.0,76.0,30.11,East,84,7.0,12.0,78,0.00,,,0.07,,2013-06-09 16:53:00,
2013-06-09 13:03:00,84.0,76.0,30.11,East,84,3.0,12.0,76,0.00,,,0.07,,2013-06-09 17:03:00,
2013-06-09 13:12:00,84.0,76.0,30.11,East,84,3.0,12.0,76,0.00,,,0.07,,2013-06-09 17:12:00,
2013-06-09 13:22:00,85.0,75.0,30.11,ENE,64,6.0,12.0,73,0.00,,,0.07,,2013-06-09 17:22:00,
2013-06-09 13:32:00,84.0,74.0,30.11,ESE,120,9.0,16.0,73,0.00,,,0.07,,2013-06-09 17:32:00,
2013-06-09 13:42:00,84.0,74.0,30.11,ESE,120,9.0,16.0,73,0.00,,,0.07,,2013-06-09 17:42:00,
2013-06-09 13:52:00,84.0,75.0,30.11,SSE,148,8.0,18.0,75,0.00,,,0.07,,2013-06-09 17:52:00,
2013-06-09 14:03:00,84.0,76.0,30.11,ESE,120,8.0,12.0,76,0.00,,,0.07,,2013-06-09 18:03:00,
2013-06-09 14:12:00,84.0,76.0,30.11,ESE,120,8.0,12.0,76,0.00,,,0.07,,2013-06-09 18:12:00,
2013-06-09 14:22:00,84.0,75.0,30.11,ESE,112,7.0,15.0,74,0.00,,,0.07,,2013-06-09 18:22:00,
2013-06-09 14:33:00,84.0,74.0,30.10,SE,131,7.0,13.0,73,0.00,,,0.07,,2013-06-09 18:33:00,
2013-06-09 14:42:00,84.0,74.0,30.10,SE,131,7.0,13.0,73,0.00,,,0.07,,2013-06-09 18:42:00,
2013-06-09 14:52:00,84.0,75.0,30.09,ESE,104,7.0,13.0,74,0.00,,,0.07,,2013-06-09 18:52:00,
2013-06-09 15:02:00,83.0,74.0,30.09,ENE,63,10.0,15.0,75,0.00,,,0.07,,2013-06-09 19:02:00,
2013-06-09 15:12:00,83.0,74.0,30.09,ENE,63,10.0,15.0,75,0.00,,,0.07,,2013-06-09 19:12:00,
2013-06-09 15:22:00,84.0,75.0,30.09,SE,138,6.0,13.0,75,0.00,,,0.07,,2013-06-09 19:22:00,
2013-06-09 15:32:00,84.0,75.0,30.08,ESE,123,7.0,14.0,74,0.00,,,0.07,,2013-06-09 19:32:00,
2013-06-09 15:42:00,84.0,75.0,30.08,ESE,123,7.0,14.0,74,0.00,,,0.07,,2013-06-09 19:42:00,
2013-06-09 15:52:00,84.0,76.0,30.08,ESE,115,6.0,12.0,76,0.00,,,0.07,,2013-06-09 19:52:00,
2013-06-09 16:03:00,84.0,76.0,30.07,ESE,109,5.0,12.0,76,0.00,,,0.07,,2013-06-09 20:03:00,
2013-06-09 16:12:00,84.0,76.0,30.07,ESE,109,5.0,12.0,76,0.00,,,0.07,,2013-06-09 20:12:00,
2013-06-09 16:22:00,84.0,75.0,30.07,SE,127,8.0,14.0,75,0.00,,,0.07,,2013-06-09 20:22:00,
2013-06-09 16:32:00,84.0,75.0,30.07,East,79,5.0,12.0,75,0.00,,,0.07,,2013-06-09 20:32:00,
2013-06-09 16:42:00,84.0,75.0,30.07,East,79,5.0,12.0,75,0.00,,,0.07,,2013-06-09 20:42:00,
2013-06-09 16:52:00,84.0,75.0,30.06,East,96,8.0,14.0,75,0.00,,,0.07,,2013-06-09 20:52:00,
2013-06-09 17:03:00,84.0,76.0,30.06,ESE,107,5.0,14.0,77,0.00,,,0.07,,2013-06-09 21:03:00,
2013-06-09 17:12:00,84.0,75.0,30.06,ESE,120,7.0,12.0,75,0.00,,,0.07,,2013-06-09 21:12:00,
2013-06-09 17:22:00,84.0,75.0,30.06,ESE,120,7.0,12.0,75,0.00,,,0.07,,2013-06-09 21:22:00,
2013-06-09 17:33:00,84.0,76.0,30.05,SSE,158,6.0,13.0,77,0.00,,,0.03,,2013-06-09 21:33:00,
2013-06-09 17:43:00,84.0,76.0,30.05,SSE,158,6.0,13.0,77,0.00,,,0.03,,2013-06-09 21:43:00,
2013-06-09 17:53:00,83.0,77.0,30.05,East,82,6.0,10.0,81,0.00,,,0.03,,2013-06-09 21:53:00,
2013-06-09 18:02:00,83.0,76.0,30.05,SSE,151,5.0,12.0,80,0.00,,,0.03,,2013-06-09 22:02:00,
2013-06-09 18:13:00,82.0,76.0,30.05,SE,132,6.0,13.0,81,0.00,,,0.03,,2013-06-09 22:13:00,
2013-06-09 18:23:00,82.0,76.0,30.05,SE,132,6.0,13.0,81,0.00,,,0.03,,2013-06-09 22:23:00,
2013-06-09 18:33:00,82.0,75.0,30.04,East,101,7.0,13.0,79,0.00,,,0.01,,2013-06-09 22:33:00,
2013-06-09 18:42:00,82.0,75.0,30.04,East,101,7.0,13.0,79,0.00,,,0.01,,2013-06-09 22:42:00,
2013-06-09 18:52:00,82.0,74.0,30.04,ESE,111,7.0,15.0,76,0.00,,,0.01,,2013-06-09 22:52:00,
2013-06-09 19:02:00,82.0,76.0,30.04,ESE,114,7.0,15.0,81,0.00,,,0.01,,2013-06-09 23:02:00,
2013-06-09 19:12:00,81.0,75.0,30.04,East,84,3.0,14.0,82,0.00,,,0.01,,2013-06-09 23:12:00,
2013-06-09 19:22:00,81.0,75.0,30.04,East,84,3.0,14.0,82,0.00,,,0.01,,2013-06-09 23:22:00,
2013-06-09 19:32:00,81.0,75.0,30.05,East,79,8.0,12.0,82,0.00,,,0.01,,2013-06-09 23:32:00,
2013-06-09 19:43:00,81.0,75.0,30.05,East,79,8.0,12.0,82,0.00,,,0.01,,2013-06-09 23:43:00,
2013-06-09 19:52:00,80.0,74.0,30.06,ESE,113,4.0,9.0,81,0.00,,,0.01,,2013-06-09 23:52:00,
2013-06-09 20:02:00,79.0,73.0,30.06,SSE,149,4.0,7.0,82,0.00,,,0.01,,2013-06-10 00:02:00,
2013-06-09 20:13:00,79.0,73.0,30.06,SSE,149,4.0,7.0,82,0.00,,,0.01,,2013-06-10 00:13:00,
2013-06-09 20:22:00,79.0,73.0,30.07,SE,135,3.0,6.0,83,0.00,,,0.01,,2013-06-10 00:22:00,
2013-06-09 20:32:00,78.0,73.0,30.07,ESE,112,2.0,5.0,84,0.00,,,0.00,,2013-06-10 00:32:00,
2013-06-09 20:42:00,78.0,73.0,30.07,ESE,112,2.0,5.0,84,0.00,,,0.00,,2013-06-10 00:42:00,
2013-06-09 20:52:00,79.0,74.0,30.07,East,84,2.0,5.0,86,0.00,,,0.00,,2013-06-10 00:52:00,
2013-06-09 21:03:00,78.0,73.0,30.07,East,91,1.0,5.0,86,0.00,,,0.00,,2013-06-10 01:03:00,
2013-06-09 21:12:00,78.0,73.0,30.07,East,91,1.0,5.0,86,0.00,,,0.00,,2013-06-10 01:12:00,
2013-06-09 21:22:00,78.0,74.0,30.07,East,91,2.0,6.0,88,0.00,,,0.00,,2013-06-10 01:22:00,
2013-06-09 21:32:00,78.0,74.0,30.07,East,88,3.0,7.0,89,0.00,,,0.00,,2013-06-10 01:32:00,
2013-06-09 21:43:00,78.0,74.0,30.07,East,88,3.0,7.0,89,0.00,,,0.00,,2013-06-10 01:43:00,
2013-06-09 21:52:00,78.0,75.0,30.07,ESE,105,4.0,10.0,91,0.00,,,0.00,,2013-06-10 01:52:00,
2013-06-09 22:02:00,78.0,75.0,30.08,East,93,3.0,11.0,90,0.00,,,0.00,,2013-06-10 02:02:00,
2013-06-09 22:12:00,78.0,75.0,30.08,East,93,3.0,11.0,90,0.00,,,0.00,,2013-06-10 02:12:00,
2013-06-09 22:22:00,79.0,76.0,30.08,ESE,121,4.0,9.0,90,0.00,,,0.00,,2013-06-10 02:22:00,
2013-06-09 22:32:00,79.0,76.0,30.08,ESE,121,3.0,7.0,90,0.00,,,0.00,,2013-06-10 02:32:00,
2013-06-09 22:42:00,79.0,76.0,30.08,ESE,121,3.0,7.0,90,0.00,,,0.00,,2013-06-10 02:42:00,
2013-06-09 22:52:00,79.0,76.0,30.09,ESE,104,2.0,7.0,90,0.00,,,0.00,,2013-06-10 02:52:00,
2013-06-09 23:02:00,78.0,75.0,30.09,ESE,112,2.0,7.0,91,0.00,,,0.00,,2013-06-10 03:02:00,
2013-06-09 23:12:00,78.0,75.0,30.09,ESE,112,2.0,7.0,91,0.00,,,0.00,,2013-06-10 03:12:00,
2013-06-09 23:22:00,78.0,75.0,30.09,East,99,3.0,9.0,91,0.00,,,0.00,,2013-06-10 03:22:00,
2013-06-09 23:33:00,78.0,75.0,30.10,ESE,118,1.0,4.0,91,0.00,,,0.00,,2013-06-10 03:33:00,
2013-06-09 23:43:00,78.0,75.0,30.10,ESE,118,1.0,4.0,91,0.00,,,0.00,,2013-06-10 03:43:00,
2013-06-09 23:53:00,78.0,75.0,30.10,SE,135,1.0,5.0,92,0.00,,,0.00,,2013-06-10 03:53:00,